sat.trackr.live / text

‹ back to catalog

GOSAT-GW (IBUKI GW)

NORAD 64694 · 2025-141A

PAYLOAD ACTIVE UNKNOWN

§ Identity

Operator
Country
JPN
Launch date
2025-06-28
Launch site
TANSC
Launch vehicle
Mass (kg)
RCS (m²)

Purposes: earth_obs

External: N2YO · Heavens-Above · Gunter

§ Orbital elements

Epoch: 2026-09-19T23:05:51.300384Z

Period
98.12 min
Inclination
98.0606°
Eccentricity
0.0001419
Mean motion
14.67552705 rev/d
Perigee alt
667.9 km
Apogee alt
669.9 km
Semi-major
7,047.0 km
B*
7.9921e-5
RAAN
198.7476°
Arg perigee
84.5616°
Mean anomaly
275.5751°
Rev number
6,574

§ Raw data

GOSAT-GW (IBUKI GW)1 64694U 25141A   26262.96239931  .00000406  00000+0  79921-4 0  99932 64694  98.0606 198.7476 0001419  84.5616 275.5751 14.67552705 65743

JSON: /api/v1/satellites/64694 · /tle

For live sub-satellite position, see the globe view (requires WebGL).

§ Visibility from observer

Set your observer location to see the next 7 days of passes ≥ 10°. The values pass through the URL so the page stays shareable.

No JS? Fill the form by hand. The geolocation button needs JavaScript.